Forecast Directory
U.S. Alerts
El Dorado Weather Logo
U.S. Radar Loop Conditions Map

U.S. Color Satellite North America Color Infrared Animated Satellite Loop

Interactive Wx Map Live U.S. Google Map Radar Thumbnail Image

US Precipitation 1 day, 24 hour precipitation map

US Temperatures US Conditions Map

US Climate Data US Conditions Map


NOAA NWS Hourly Roundups by Site
Regional Weather Roundup for Sacramento, CA
Select Site:  

000
ASUS46 KSTO 271915
RWRCA

NORTHERN AND CENTRAL CA REGIONAL WEATHER ROUNDUP
NATIONAL WEATHER SERVICE SACRAMENTO CA
1200 PM PDT WED OCT 27 2021

NOTE: FAIR INDICATES FEW OR NO CLOUDS BELOW 12,000 FEET WITH NO
SIGNIFICANT WEATHER AND/OR OBSTRUCTIONS TO VISIBILITY.

CAZ001-003-272000-
NORTHWEST AREA

CITY           SKY/WX    TMP DP  RH WIND       PRES   REMARKS
CRESCENT CITY  CLOUDY    57  57 100 S8        30.37R FOG
UKIAH          CLOUDY    61  55  81 N6        30.37R
$$

CAZ006-505>513-272000-
BAY AREA

CITY           SKY/WX    TMP DP  RH WIND       PRES   REMARKS
SANTA ROSA     CLOUDY    61  57  87 CALM      30.35F
SAN RAFAEL     N/A       65  MM  MM MISG
NAPA           MOSUNNY   64  57  78 VRB3      30.34S
CONCORD        SUNNY     67  58  72 N7        30.34F
OAKLAND CITY   N/A       64  MM  MM MISG
OAKLAND        MOSUNNY   64  55  72 W5        30.34F
SAN FRAN CITY  N/A       64  MM  70 MISG
SAN FRAN ARPT  MOSUNNY   63  57  81 NE6       30.33F
LIVERMORE      SUNNY     68  55  63 VRB3      30.32F
HAYWARD        SUNNY     67  55  65 W7        30.33F
REDWOOD CITY   N/A       66  MM  73 MISG
MOFFETT ARPT   SUNNY     66  55  68 N6        30.33F
SAN JOSE ARPT  MOSUNNY   69  55  60 VRB6      30.33F
$$
CAZ034-037-514>518-272000-
CENTRAL COAST

CITY           SKY/WX    TMP DP  RH WIND       PRES   REMARKS
WATSONVILLE    SUNNY     69  54  58 S5        30.31F
SALINAS        SUNNY     68  52  56 CALM      30.31F
MONTEREY       SUNNY     71  52  50 NW7       30.32S
SAN LUIS OBISP SUNNY     76  48  37 N9        30.24F
SANTA MARIA    SUNNY     78  44  29 N14       30.22F
HALF MOON BAY  FAIR      64  59  82 NW10      30.33F
$$
CAZ015-016-272000-
NORTHERN SACRAMENTO VALLEY

CITY           SKY/WX    TMP DP  RH WIND       PRES   REMARKS
REDDING        CLOUDY    60  53  77 N6        30.38R
RED BLUFF      CLOUDY    63  51  65 N6        30.38R
OROVILLE       SUNNY     67  49  52 W5        30.36F
$$
CAZ016>018-272000-
SOUTHERN SACRAMENTO VALLEY

CITY           SKY/WX    TMP DP  RH WIND       PRES   REMARKS
AUBURN         SUNNY     66  48  52 W7        30.35F
BEALE AFB      SUNNY     66  51  58 N7        30.34S
LINCOLN        FAIR      64  54  68 W5        30.34S
MARYSVILLE     SUNNY     69  50  50 VRB6      30.35F
SAC INTL ARPT  SUNNY     64  54  69 N8        30.34F
MATHER AIRPORT SUNNY     66  55  68 W5        30.32F
DOWNTOWN SAC   N/A       67  MM  MM MISG
SAC EXEC ARPT  SUNNY     66  55  67 N3        30.34S
VACAVILLE      SUNNY     68  56  65 NE7       30.35S
TRAVIS AFB     SUNNY     71  57  60 N6        30.34S
$$
CAZ019>021-272000-
SAN JOAQUIN VALLEY

CITY           SKY/WX    TMP DP  RH WIND       PRES   REMARKS
STOCKTON       MOSUNNY   66  56  70 NW8       30.32F
MODESTO        PTSUNNY   64  53  67 CALM      30.33S
MERCED         SUNNY     64  50  60 CALM      30.32F
LEMOORE        SUNNY     66  49  54 VRB3      30.34F
FRESNO         MOSUNNY   63  48  58 CALM      30.33F
HANFORD        SUNNY     63  50  62 VRB3      30.34F
PORTERVILLE    SUNNY     66  49  54 VRB3      30.34F
BAKERSFIELD    SUNNY     64  46  52 SW3       30.32F
$$
CAZ011-012-071-272000-
NORTHERN MOUNTAINS

CITY           SKY/WX    TMP DP  RH WIND       PRES   REMARKS
YREKA          CLOUDY    57  45  64 SW7       30.36R
MOUNT SHASTA   CLOUDY    51  45  79 VRB3      30.38S
ALTURAS        MOSUNNY   53  44  71 SW7       30.38R
$$
CAZ011-012-071-272000-
SIERRA NEVADA MTNS

CITY           SKY/WX    TMP DP  RH WIND       PRES   REMARKS
BLUE CANYON    MOSUNNY   55  45  68 NW8       30.44S
TRUCKEE        SUNNY     48  43  81 CALM      30.46S
TAHOE VLY ARPT SUNNY     52  39  61 NE8       30.44S
MAMMOTH LAKES  FAIR      55  37  50 NW3       30.48S
$$


 

View Past Reports for Sacramento, CA.

Products Courtesy of NOAA-NWS
NWS Information Parsing Script by Ken True at Saratoga Weather - Script by SE Lincoln Weather.



Contact Us | Mobile
Never base any life decisions on weather information from this site or anywhere over the Internet.
Site is dedicated to our Lord & Savior Jesus Christ | Random Quotes of Jesus

Copyright © 2021 El Dorado Weather, Inc. | Site Designed By:  El Dorado Weather